Regional Weather Roundup
Issued by NWS Charleston, SC

Current Version | Previous Version | Text Only | Print | Product List | Glossary Off
Versions: 1 2 3 4 5 6 7 8 9 10 11 12 13 14 15 16 17 18 19 20 21 22 23 24 25 26 27 28 29 30 31 32 33 34 35 36 37 38 39 40 41 42 43 44 45 46 47 48 49 50
000 ASUS42 KCHS 271025 RWRCHS REGIONAL WEATHER ROUNDUP NATIONAL WEATHER SERVICE CHARLESTON SC 500 AM EST SAT DEC 27 2014 NOTE: "FAIR" INDICATES FEW OR NO CLOUDS BELOW 12,000 FEET WITH NO SIGNIFICANT WEATHER AND/OR OBSTRUCTIONS TO VISIBILITY. NOT ALL STATIONS ARE QUALITY CONTROLLED BY THE NATIONAL WEATHER SERVICE. USE DATA WITH CAUTION...ESPECIALLY DEWPOINT OBSERVATIONS. SCZ027-030-031-034>040-042>050-271100- ...SOUTHEAST SOUTH CAROLINA... CITY SKY/WX TMP DP RH WIND PRES REMARKS N CHARLESTON CLEAR 41 41 100 CALM 30.28S WATERFRONT PRK N/A 48 N/A N/A N6 N/A MOUNT PLEASANT FAIR 43 43 100 CALM 30.27F PINOPOLIS N/A 48 46 93 CALM 30.21F MONCKS CORNER FAIR 39 37 93 CALM 30.28F FOG SUMMERVILLE FOG 37 37 100 CALM 30.29S VSB 1/4 BEAUFORT MCAS CLEAR 45 42 89 N5 30.27F BEAUFORT ARPT FAIR 45 45 100 NE5 30.27S FOG HILTON HEAD IS NOT AVBL WALTERBORO SUNNY 36 N/A N/A NW3 30.29S ALLENDALE FAIR 37 37 100 CALM 30.28S ...SOUTHERN MIDLANDS AND PEE DEE... CITY SKY/WX TMP DP RH WIND PRES REMARKS GEORGETOWN NOT AVBL KINGSTREE NOT AVBL ORANGEBURG CLEAR 36 33 89 CALM 30.29S BARNWELL N/A 32 32 100 CALM 30.30R AIKEN FAIR 32 32 100 CALM 30.32S MANNING FAIR 34 N/A N/A CALM 30.30R COLUMBIA CLEAR 32 29 88 CALM 30.30S SUMTER PTCLDY 34 31 88 CALM 30.28S FLORENCE CLEAR 34 32 92 CALM 30.29F MYRTLE BEACH CLEAR 39 36 87 MISG 30.29F N MYRTLE BEACH CLEAR 36 35 96 CALM 30.29S FOG $$ GAZ063-065-086>088-099>101-113>116-118-119-134>141-150-271100- ...SOUTHEAST GEORGIA... CITY SKY/WX TMP DP RH WIND PRES REMARKS SAVANNAH ARPT CLEAR 43 41 93 CALM 30.27S FOG HUNTER AAF CLEAR 47 47 100 N3 30.25S FORT STEWART CLEAR 41 40 95 CALM 30.25F STATESBORO CLEAR 37 37 100 CALM 30.29R SYLVANIA SUNNY 39 39 100 CALM 30.29S CLAXTON FAIR 37 37 100 CALM 30.29R ...CSRA...CENTRAL AND FAR SOUTHEAST GEORGIA... CITY SKY/WX TMP DP RH WIND PRES REMARKS THOMSON PTCLDY 32 32 100 CALM 30.34R AUGUSTA-BUSH CLEAR 30 29 96 W3 30.30F AUGUSTA-DANIEL CLEAR 41 38 89 NE3 30.29F SWAINSBORO FAIR 37 37 100 CALM 30.30R VIDALIA CLEAR 41 39 93 CALM 30.28S EASTMAN FOG 36 36 100 CALM 30.31S VSB 3/4 HAZLEHURST FAIR 42 42 100 CALM 30.26F ALMA CLEAR 42 40 92 NW3 30.26S WAYCROSS CLEAR 47 47 100 CALM 30.25F JESUP FAIR 46 45 93 CALM 30.26S FOG BAXLEY FAIR 43 43 100 CALM 30.27R BRUNSWICK PTCLDY 52 48 87 CALM 30.26S SAINT SIMONS MOCLDY 53 50 89 N6 30.25R $$ SCZ027-028-034-036>038-045-046-048>050-GAZ119-141-271100- ...LAKE AND SUPPLEMENTAL COASTAL OBSERVATIONS... STATION/POSITION TIME TEMP WIND PRES WAVE SWELL AIR SEA DIR/SP/G HT/PER HT/PER/DIR (UTC) (F) (DEG/KT/KT) (MB) (FT/S) (FT/S/D) UPR LAKE MARION NOT AVBL WINYAH BAY 1000 45 340/ 3 1025.0S LAKE MURRAY 1000 39 CALM 1025.4S ACE BASIN NERRS 1000 43 CALM 1025.0S FORT PULASKI 1000 53 56 20/ 5/ 6 1025.1S SAPELO ISLAND 1000 49 20/ 5 1024.0S $$ ANZ835-935-AMZ111-154-330-350-352-354-370-450-454-472-271100- ...C-MAN AND BUOY OBSERVATIONS... STATION/POSITION TIME TEMP WIND PRES WAVE SWELL AIR SEA DIR/SP/G HT/PER HT/PER/DIR (UTC) (F) (DEG/KT/KT) (MB) (FT/S) (FT/S/D) BUOY 41004 1000 63 73 20/ 12/ 14 1024.2F 2/ 7 2/ 7 BUOY 41008 1000 59 58 40/ 12/ 14 1024.0S 2/ 4 2/110/ 9 FOLLY BEACH CMAN 1000 50 360/ 5/ 5 1025.4F CAPERS NEARSHORE 0900 54 60/ 8/ 8 N/A FRIPP NEARSHORE NOT AVBL STATION/POSITION TIME TEMP WIND PRES WAVE SWELL AIR SEA DIR/SP/G HT/PER HT/PER/DIR (UTC) (F) (DEG/KT/KT) (MB) (FT/S) (FT/S/D) 5E ST. MARYS GA 1000 61 N/A 3/ 5 FRYING PAN BUOY 1000 60 69 20/ 8/ 10 1025.8F 2/13 2/120/13 BUOY 41025 1000 55 1025.8S 2/ 8 CAPE LOOKOUT NC 1000 52 20/ 5/ 5 1025.4F BUOY 41002 0902 68 74 90/ 4/ 8 1025.1R 3/13 3/ 50/13 BUOY 41010 1000 74 76 100/ 12/ 14 1022.1F 3/ 5 2/120/ 9 ST AUGUSTINE FL 1000 62 350/ 8/ 8 1023.4F $$

USA.gov is the U.S. government's official web portal to all federal, state and local government web resources and services.